sat.trackr.live / text

‹ back to catalog

STARLINK-6129

NORAD 57116 · 2023-090R

PAYLOAD ACTIVE UNKNOWN

§ Identity

Operator
Country
US
Launch date
2023-06-23
Launch site
AFETR
Launch vehicle
Mass (kg)
RCS (m²)

Purposes: comms

External: N2YO · Heavens-Above · Gunter

§ Orbital elements

Epoch: 2026-05-24T21:49:59.007072Z

Period
94.32 min
Inclination
43.0039°
Eccentricity
0.0001959
Mean motion
15.26741124 rev/d
Perigee alt
484.2 km
Apogee alt
486.9 km
Semi-major
6,863.7 km
B*
8.7387e-6
RAAN
210.7398°
Arg perigee
289.4892°
Mean anomaly
70.5747°
Rev number
16,199

§ Raw data

STARLINK-61291 57116U 23090R   26144.90971073 -.00000026  00000+0  87387-5 0  99932 57116  43.0039 210.7398 0001959 289.4892  70.5747 15.26741124161996

JSON: /api/v1/satellites/57116 · /tle

For live sub-satellite position, see the globe view (requires WebGL).

§ Visibility from observer

Set your observer location to see the next 7 days of passes ≥ 10°. The values pass through the URL so the page stays shareable.

No JS? Fill the form by hand. The geolocation button needs JavaScript.